Weather in Chistoozyornoe

Russia / Novosibirsk Oblast     54°42′26″N   76°34′54″E
temp.,
°C
wind,
m/s
gust,
m/s
humid.,
%
clouds,
%
prec.,
mm/h
press.,
hPa
HPBL,
m
27 february, sat
sat2701:00−29sw349896 0.0 103575
04:00−29sw3598100 0.0 1035111
07:00−31sw339983 0.0 103524
10:00−31sw349931 0.0 103658
13:00−27ssw349540 0.0 1036214
16:00−25ssw349433 0.0 1036248
19:00−28s349725 0.0 103533
22:00−29s44970 0.0 103557
28 february, sun
sun2801:00−30sse449814 0.0 103452
04:00−29sse479921 0.0 103388
07:00−27se589659 0.0 1031172
10:00−24se61192100 0.0 1028260
13:00−21se6992100 0.0 1025313
16:00−17se61095100 0.1 1022384
19:00−15ese61194100 0.6 1018431
22:00−13e61195100 0.3 1014325
1 march, mon
mon101:00−9e71195100 0.9 1010311
04:00−8ene71195100 2.1 1006299
07:00−6ne6995100 3.1 1004270
10:00−7ne5795100 1.0 1005253
13:00−7nne4594100 1.8 1007268
16:00−8nne4594100 0.4 1009307
19:00−10n4695100 0.8 1012287
22:00−15nnw349684 0.1 101430
2 march, tue
tue201:00−17nnw229854 0.1 101720
04:00−19nw1110071 0.0 101820
07:00−17wsw129782 0.1 101820
10:00−18wsw119785 0.1 101820
13:00−15ssw229290 0.1 1018230
16:00−13ssw1189100 0.0 1017276
19:00−17sse1196100 0.0 101620
22:00−15ese1197100 0.1 101520
3 march, wed
wed301:00−15se0097100 0.4 101520
04:00−16n0197100 0.3 101420
07:00−15nnw1197100 0.7 101420
10:00−15nw119799 0.3 101531
13:00−13wnw238998 0.4 1016359
16:00−12w3489100 0.1 1017484
19:00−14wsw3495100 0.1 102047
22:00−18sw339883 0.0 102121